• In Österreich
  • Länderverzeichnis
  • Für 7 Tage
  • Wassertemperatur
  • Satellitenkarten
  • Wetterkarte
  • News
  • Widgets
  • user-avatar
    Anmelden

    Stündliche Wetter Prutz

    Heute, 21 Mai, Montag

    Zeit Temperatur Niederschläge Wind Luftdruck Luftfeuchtigkeit
    00:00 +5°C° 0 mm 2 m/S 633 mmHg 93%
    01:00 +5°C° 0 mm 2 m/S 633 mmHg 93%
    02:00 +4°C° 0 mm 2 m/S 632 mmHg 93%
    03:00 +4°C° 0 mm 2 m/S 632 mmHg 93%
    04:00 +4°C° 0 mm 2 m/S 632 mmHg 92%
    05:00 +5°C° 0 mm 2 m/S 632 mmHg 90%
    06:00 +6°C° 0 mm 2 m/S 633 mmHg 87%
    07:00 +8°C° 0 mm 2 m/S 633 mmHg 84%
    08:00 +10°C° 0 mm 2 m/S 633 mmHg 76%
    09:00 +13°C° 0 mm 1 m/S 634 mmHg 67%
    10:00 +14°C° 0 mm 1 m/S 634 mmHg 58%
    11:00 +15°C° 0,3 mm 1 m/S 634 mmHg 60%
    12:00 +15°C° 0,3 mm 1 m/S 634 mmHg 62%
    13:00 +15°C° 0,3 mm 1 m/S 634 mmHg 63%
    14:00 +15°C° 0,8 mm 1 m/S 633 mmHg 65%
    15:00 +15°C° 0,8 mm 1 m/S 633 mmHg 68%
    16:00 +15°C° 0,8 mm 1 m/S 633 mmHg 70%
    17:00 +13°C° 0,7 mm 1 m/S 632 mmHg 75%
    18:00 +12°C° 0,7 mm 1 m/S 632 mmHg 81%
    19:00 +11°C° 0,7 mm 1 m/S 631 mmHg 86%
    20:00 +10°C° 0,3 mm 1 m/S 631 mmHg 88%
    21:00 +9°C° 0,3 mm 1 m/S 631 mmHg 89%
    22:00 +7°C° 0,3 mm 2 m/S 631 mmHg 91%
    23:00 +7°C° 0 mm 2 m/S 631 mmHg 91%

    Morgen, 22 Mai, Dienstag

    Zeit Temperatur Niederschläge Wind Luftdruck Luftfeuchtigkeit
    00:00 +7°C° 0 mm 2 m/S 631 mmHg 92%
    01:00 +6°C° 0 mm 2 m/S 631 mmHg 92%
    02:00 +6°C° 0 mm 2 m/S 631 mmHg 92%
    03:00 +6°C° 0 mm 2 m/S 631 mmHg 91%
    04:00 +5°C° 0 mm 2 m/S 630 mmHg 91%
    05:00 +7°C° 0 mm 2 m/S 631 mmHg 88%
    06:00 +9°C° 0 mm 1 m/S 632 mmHg 84%
    07:00 +10°C° 0 mm 1 m/S 632 mmHg 80%
    08:00 +12°C° 0 mm 1 m/S 633 mmHg 74%
    09:00 +14°C° 0 mm 1 m/S 633 mmHg 67%
    10:00 +15°C° 0 mm 1 m/S 634 mmHg 60%
    11:00 +15°C° 0,7 mm 1 m/S 634 mmHg 61%
    12:00 +15°C° 0,7 mm 1 m/S 634 mmHg 63%
    13:00 +16°C° 0,7 mm 1 m/S 634 mmHg 64%
    14:00 +15°C° 1 mm 1 m/S 634 mmHg 66%
    15:00 +15°C° 1 mm 1 m/S 634 mmHg 68%
    16:00 +15°C° 1 mm 1 m/S 633 mmHg 70%
    17:00 +14°C° 0,5 mm 1 m/S 633 mmHg 76%
    18:00 +13°C° 0,5 mm 1 m/S 633 mmHg 81%
    19:00 +12°C° 0,5 mm 1 m/S 633 mmHg 86%
    20:00 +11°C° 0,3 mm 1 m/S 633 mmHg 89%
    21:00 +10°C° 0,3 mm 1 m/S 633 mmHg 91%
    22:00 +8°C° 0,3 mm 1 m/S 633 mmHg 93%
    23:00 +8°C° 0,1 mm 1 m/S 633 mmHg 93%

    übermorgen, 23 Mai, Mittwoch

    Zeit Temperatur Niederschläge Wind Luftdruck Luftfeuchtigkeit
    00:00 +8°C° 0,1 mm 1 m/S 633 mmHg 93%
    01:00 +7°C° 0,1 mm 1 m/S 633 mmHg 93%
    02:00 +7°C° 0 mm 1 m/S 633 mmHg 93%
    03:00 +7°C° 0 mm 1 m/S 633 mmHg 93%
    04:00 +7°C° 0 mm 1 m/S 633 mmHg 93%
    05:00 +8°C° 0,1 mm 1 m/S 634 mmHg 90%
    06:00 +10°C° 0,1 mm 1 m/S 634 mmHg 87%
    07:00 +10°C° 0,1 mm 0 m/S 635 mmHg 84%
    08:00 +13°C° 0,5 mm 1 m/S 636 mmHg 80%
    09:00 +14°C° 0,5 mm 1 m/S 636 mmHg 76%
    10:00 +15°C° 0,5 mm 1 m/S 636 mmHg 72%
    11:00 +16°C° 1,4 mm 1 m/S 636 mmHg 71%
    12:00 +16°C° 1,4 mm 1 m/S 636 mmHg 71%
    13:00 +16°C° 1,4 mm 2 m/S 636 mmHg 70%
    14:00 +16°C° 1,6 mm 2 m/S 636 mmHg 73%
    15:00 +15°C° 1,6 mm 1 m/S 636 mmHg 77%
    16:00 +15°C° 1,6 mm 1 m/S 636 mmHg 80%
    17:00 +14°C° 0,9 mm 1 m/S 636 mmHg 84%
    18:00 +13°C° 0,9 mm 1 m/S 635 mmHg 88%
    19:00 +12°C° 0,9 mm 1 m/S 635 mmHg 92%
    20:00 +11°C° 0,5 mm 1 m/S 635 mmHg 93%
    21:00 +10°C° 0,5 mm 1 m/S 635 mmHg 94%
    22:00 +9°C° 0,5 mm 1 m/S 635 mmHg 95%
    23:00 +9°C° 0 mm 1 m/S 635 mmHg 95%

    24 Mai, Donnerstag

    Zeit Temperatur Niederschläge Wind Luftdruck Luftfeuchtigkeit
    00:00 +9°C° 0 mm 1 m/S 635 mmHg 94%
    01:00 +8°C° 0 mm 1 m/S 634 mmHg 94%
    02:00 +8°C° 0 mm 1 m/S 634 mmHg 94%
    03:00 +8°C° 0 mm 1 m/S 634 mmHg 93%
    04:00 +8°C° 0 mm 1 m/S 634 mmHg 93%
    05:00 +9°C° 0 mm 1 m/S 635 mmHg 90%
    06:00 +10°C° 0 mm 0 m/S 635 mmHg 87%
    07:00 +11°C° 0 mm 0 m/S 636 mmHg 84%
    08:00 +12°C° 0,2 mm 0 m/S 636 mmHg 80%
    09:00 +15°C° 0,2 mm 1 m/S 637 mmHg 75%
    10:00 +16°C° 0,2 mm 1 m/S 637 mmHg 71%
    11:00 +16°C° 0,8 mm 1 m/S 637 mmHg 69%
    12:00 +18°C° 0,8 mm 1 m/S 637 mmHg 67%
    13:00 +18°C° 0,8 mm 1 m/S 636 mmHg 65%
    14:00 +18°C° 1,1 mm 1 m/S 636 mmHg 68%
    15:00 +16°C° 1,1 mm 1 m/S 636 mmHg 71%
    16:00 +16°C° 1,1 mm 1 m/S 636 mmHg 74%
    17:00 +15°C° 0,9 mm 1 m/S 635 mmHg 79%
    18:00 +14°C° 0,9 mm 1 m/S 635 mmHg 83%
    19:00 +13°C° 0,9 mm 1 m/S 635 mmHg 88%
    20:00 +12°C° 0,4 mm 1 m/S 635 mmHg 89%
    21:00 +11°C° 0,4 mm 1 m/S 635 mmHg 90%
    22:00 +10°C° 0,4 mm 1 m/S 635 mmHg 91%
    23:00 +10°C° 0,1 mm 1 m/S 635 mmHg 90%

    25 Mai, Freitag

    Zeit Temperatur Niederschläge Wind Luftdruck Luftfeuchtigkeit
    00:00 +9°C° 0,1 mm 1 m/S 635 mmHg 90%
    01:00 +9°C° 0,1 mm 1 m/S 634 mmHg 89%
    02:00 +8°C° 0 mm 1 m/S 634 mmHg 89%
    03:00 +8°C° 0 mm 1 m/S 634 mmHg 88%
    04:00 +8°C° 0 mm 1 m/S 634 mmHg 88%
    05:00 +10°C° 0 mm 1 m/S 635 mmHg 84%
    06:00 +11°C° 0 mm 1 m/S 635 mmHg 79%
    07:00 +13°C° 0 mm 1 m/S 636 mmHg 75%
    08:00 +15°C° 0 mm 1 m/S 637 mmHg 67%
    09:00 +18°C° 0 mm 1 m/S 637 mmHg 58%
    10:00 +20°C° 0 mm 1 m/S 638 mmHg 49%
    11:00 +20°C° 0,1 mm 1 m/S 638 mmHg 49%
    12:00 +20°C° 0,1 mm 1 m/S 638 mmHg 48%
    13:00 +21°C° 0,1 mm 1 m/S 637 mmHg 48%
    14:00 +19°C° 0,6 mm 2 m/S 637 mmHg 51%
    15:00 +19°C° 0,6 mm 2 m/S 637 mmHg 55%
    16:00 +18°C° 0,6 mm 2 m/S 637 mmHg 59%
    17:00 +18°C° 0,9 mm 1 m/S 637 mmHg 67%
    18:00 +16°C° 0,9 mm 1 m/S 636 mmHg 75%
    19:00 +15°C° 0,9 mm 1 m/S 636 mmHg 84%
    20:00 +14°C° 0,9 mm 1 m/S 636 mmHg 86%
    21:00 +13°C° 0,9 mm 1 m/S 636 mmHg 89%
    22:00 +12°C° 0,9 mm 1 m/S 636 mmHg 91%
    23:00 +11°C° 0,3 mm 1 m/S 636 mmHg 91%

    26 Mai, Samstag

    Zeit Temperatur Niederschläge Wind Luftdruck Luftfeuchtigkeit
    00:00 +11°C° 0,3 mm 1 m/S 636 mmHg 91%
    01:00 +10°C° 0,3 mm 1 m/S 635 mmHg 92%
    02:00 +10°C° 0,1 mm 1 m/S 635 mmHg 91%
    03:00 +10°C° 0,1 mm 1 m/S 635 mmHg 91%
    04:00 +9°C° 0,1 mm 1 m/S 635 mmHg 91%
    05:00 +11°C° 0 mm 1 m/S 636 mmHg 86%
    06:00 +13°C° 0 mm 1 m/S 636 mmHg 81%
    07:00 +14°C° 0 mm 0 m/S 637 mmHg 76%
    08:00 +16°C° 0,2 mm 1 m/S 638 mmHg 68%
    09:00 +19°C° 0,2 mm 1 m/S 638 mmHg 60%
    10:00 +21°C° 0,2 mm 1 m/S 639 mmHg 51%
    11:00 +21°C° 0,7 mm 1 m/S 639 mmHg 50%
    12:00 +22°C° 0,7 mm 1 m/S 639 mmHg 50%
    13:00 +22°C° 0,7 mm 1 m/S 639 mmHg 49%
    14:00 +22°C° 0,9 mm 1 m/S 639 mmHg 51%
    15:00 +22°C° 0,9 mm 1 m/S 639 mmHg 53%
    16:00 +20°C° 0,9 mm 2 m/S 638 mmHg 55%
    17:00 +20°C° 0,7 mm 1 m/S 638 mmHg 63%
    18:00 +19°C° 0,7 mm 1 m/S 638 mmHg 70%
    19:00 +16°C° 0,7 mm 1 m/S 638 mmHg 78%
    20:00 +15°C° 0,5 mm 1 m/S 637 mmHg 80%
    21:00 +14°C° 0,5 mm 1 m/S 637 mmHg 82%
    22:00 +13°C° 0,5 mm 1 m/S 637 mmHg 84%
    23:00 +12°C° 0 mm 1 m/S 637 mmHg 83%
    Mehr zeigen